Aurora, OR

12:06 PM PST on December 08, 2016 (GMT -0800)
Aurora State

Weather History for KUAO - March, 2013

Change the Weather History Date:

Monday, March 4, 2013

  Actual Average Record
Temperature  
Mean Temperature 45 °F -  
Max Temperature 58 °F - 62 °F (2014)
Min Temperature 32 °F - 28 °F (2015)
Degree Days  
Heating Degree Days 20    
Month to date heating degree days 71  
Since 1 July heating degree days 3196  
Cooling Degree Days 0    
Month to date cooling degree days 0  
Year to date cooling degree days 0  
Moisture  
Dew Point 31 °F    
Average Humidity 65    
Maximum Humidity 100    
Minimum Humidity 30    
Precipitation  
Precipitation 0.00 in - 0.82 in (1956)
Month to date precipitation 0.01  
Year to date precipitation 3.69  
Sea Level Pressure  
Sea Level Pressure 30.08 in    
Wind  
Wind Speed 4 mph (North)    
Max Wind Speed 13 mph    
Max Gust Speed 15 mph    
Visibility 10 miles    
Events      
T = Trace of Precipitation, MM = Missing Value Source: NWS Daily Summary

Daily Weather History Graph

Daily Weather History Graph

Search for Another Location

Airport or City:

Trip Planner

Search our weather history database for the weather conditions in past years. The results will help you decide how hot, cold, wet, or windy it might be!

Date:

Astronomy

Mar. 04, 2013 Rise Set
Actual Time 6:43 AM PST 6:02 PM PST
Civil Twilight 6:13 AM PST 6:32 PM PST
Nautical Twilight 5:39 AM PST 7:06 PM PST
Astronomical Twilight 5:05 AM PST 7:40 PM PST
Moon 1:10 AM PST (3/4) 10:37 AM PST (3/4)
Length of Visible Light 12h 18m
Length of Day
11h 19m
Waning Gibbous, 51% of the Moon is Illuminated
Mar 4
Waning Gibbous
Mar 4
Last Quarter
Mar 11
New
Mar 19
First Quarter
Mar 27
Full

Hourly Weather History & Observations

Time (PST) Temp. Windchill Dew Point Humidity Pressure Visibility Wind Dir Wind Speed Gust Speed Precip Events Conditions
12:53 AM 34.0 °F 28.8 °F 33.1 °F 96% 30.25 in 10.0 mi North 5.8 mph - N/A   Clear
1:53 AM 33.1 °F 30.0 °F 32.0 °F 96% 30.24 in 10.0 mi NE 3.5 mph - N/A   Clear
2:53 AM 35.1 °F 28.6 °F 33.1 °F 92% 30.21 in 10.0 mi North 8.1 mph - N/A   Clear
3:53 AM 33.1 °F 24.9 °F 32.0 °F 96% 30.20 in 10.0 mi North 10.4 mph - N/A   Clear
4:53 AM 33.1 °F 26.9 °F 32.0 °F 96% 30.20 in 10.0 mi North 6.9 mph - N/A   Clear
5:53 AM 33.1 °F 26.1 °F 30.9 °F 92% 30.18 in 10.0 mi North 8.1 mph - N/A   Clear
6:53 AM 33.1 °F 25.5 °F 30.9 °F 92% 30.15 in 10.0 mi North 9.2 mph - N/A   Clear
7:53 AM 35.1 °F 29.3 °F 30.0 °F 82% 30.15 in 10.0 mi North 6.9 mph - N/A   Clear
8:53 AM 39.0 °F 33.4 °F 32.0 °F 76% 30.14 in 10.0 mi North 8.1 mph - N/A   Clear
9:53 AM 44.1 °F 41.5 °F 32.0 °F 63% 30.12 in 10.0 mi Variable 4.6 mph - N/A   Clear
10:53 AM 48.0 °F - 32.0 °F 54% 30.10 in 10.0 mi Calm Calm - N/A   Clear
11:53 AM 52.0 °F - 30.9 °F 45% 30.09 in 10.0 mi Variable 4.6 mph - N/A   Clear
12:53 PM 54.0 °F - 25.0 °F 33% 30.06 in 10.0 mi Calm Calm - N/A   Clear
1:53 PM 55.9 °F - 26.1 °F 32% 30.03 in 10.0 mi Calm Calm - N/A   Clear
2:53 PM 57.0 °F - 26.1 °F 30% 30.00 in 10.0 mi ESE 3.5 mph - N/A   Clear
3:53 PM 57.0 °F - 27.0 °F 32% 29.99 in 10.0 mi South 3.5 mph - N/A   Clear
4:53 PM 55.9 °F - 30.0 °F 37% 29.98 in 10.0 mi SW 4.6 mph - N/A   Clear
5:53 PM 53.1 °F - 32.0 °F 45% 29.96 in 10.0 mi Calm Calm - N/A   Clear
6:53 PM 46.9 °F - 34.0 °F 61% 29.96 in 10.0 mi Calm Calm - N/A   Clear
7:53 PM 45.0 °F - 34.0 °F 65% 29.95 in 10.0 mi Calm Calm - N/A   Clear
8:53 PM 41.0 °F - 34.0 °F 76% 29.95 in 10.0 mi Calm Calm - N/A   Clear
9:53 PM 39.9 °F - 34.0 °F 79% 29.95 in 10.0 mi Calm Calm - N/A   Clear
11:53 PM 37.0 °F - 34.0 °F 89% 29.93 in 10.0 mi Calm Calm - N/A   Clear